Volver al catálogo

NAVSTAR 13

USA 35

LostNavegaciónMEO
NORAD 19802·PAYLOAD·🇺🇸 United States

Lanzado Feb 14, 1989 desde Cape Canaveral Space Force Station

Loading…

Próximos Pases (próximas 24 horas)

TLE

ObsoletoSource: Space-Track

Época: Aug 4, 2026, 23:20 UTC

1 19802U 89013A   26216.97267242 -.00000015  00000-0  00000+0 0  9993
2 19802  55.0592  92.9874 0043310 250.6859 291.4816  1.85325503259170

Sigue NAVSTAR 13 en tiempo real con AllMySat

Download on the App Store